Precipitable_Water
1.11 1.11 1.11 1.11 1.09 1.07 1.05 1.05 1.05 1.05 1.05 1.05 1.03 1.01 1.01 0.99 0.97 0.95 0.95 0.93 0.93 0.91 0.89 0.87 0.85 0.83 0.79 0.77 0.73 0.69 0.67 0.65 0.65 0.65 0.63 0.61 0.61 0.61 0.59 0.59 0.59 0.61 0.63 0.65 0.67 0.69 0.69 0.67 0.65 0.65 0.65 0.65 0.65 0.63 0.63 0.63 0.63 0.63 0.63 0.63 0.63 0.63 0.63 0.65 0.65 0.67 0.67 0.67 0.65
1.09 1.11 1.11 1.11 1.09 1.07 1.07 1.05 1.03 1.05 1.05 1.05 1.05 1.05 1.03 1.01 0.97 0.97 0.95 0.95 0.95 0.93 0.91 0.85 0.83 0.81 0.79 0.77 0.71 0.69 0.67 0.65 0.63 0.63 0.63 0.63 0.63 0.65 0.65 0.65 0.65 0.67 0.71 0.71 0.71 0.71 0.69 0.69 0.69 0.69 0.67 0.67 0.67 0.65 0.65 0.65 0.65 0.63 0.63 0.63 0.63 0.65 0.67 0.67 0.69 0.69 0.67 0.67 0.63
1.07 1.07 1.09 1.11 1.09 1.07 1.05 1.03 1.03 1.03 1.03 1.05 1.05 1.05 1.05 1.03 0.99 0.97 0.97 0.95 0.95 0.95 0.91 0.85 0.83 0.79 0.77 0.75 0.71 0.69 0.65 0.63 0.63 0.63 0.65 0.67 0.69 0.69 0.69 0.69 0.69 0.73 0.75 0.75 0.73 0.73 0.71 0.71 0.71 0.71 0.69 0.69 0.67 0.67 0.67 0.67 0.65 0.65 0.65 0.63 0.65 0.67 0.71 0.71 0.69 0.67 0.65 0.63 0.61
1.07 1.07 1.07 1.09 1.07 1.05 1.03 1.01 1.01 1.01 1.01 1.03 1.05 1.05 1.05 1.03 1.01 0.99 0.97 0.95 0.95 0.93 0.89 0.83 0.81 0.79 0.75 0.71 0.69 0.65 0.63 0.63 0.65 0.65 0.67 0.69 0.71 0.71 0.73 0.73 0.73 0.75 0.75 0.75 0.75 0.73 0.75 0.75 0.75 0.73 0.71 0.71 0.69 0.69 0.67 0.67 0.67 0.65 0.65 0.65 0.67 0.69 0.71 0.69 0.67 0.63 0.61 0.59 0.57
1.05 1.07 1.07 1.09 1.07 1.05 1.03 1.01 0.99 0.99 1.01 1.03 1.03 1.05 1.05 1.05 1.01 0.99 0.97 0.93 0.91 0.89 0.85 0.79 0.77 0.75 0.73 0.69 0.65 0.63 0.63 0.65 0.67 0.69 0.71 0.71 0.73 0.73 0.73 0.75 0.75 0.75 0.75 0.75 0.75 0.75 0.77 0.77 0.75 0.73 0.71 0.71 0.69 0.69 0.69 0.67 0.67 0.65 0.65 0.65 0.69 0.71 0.71 0.69 0.63 0.59 0.59 0.57 0.53
1.03 1.05 1.05 1.07 1.07 1.05 1.03 1.03 1.01 0.99 0.99 1.01 1.01 1.03 1.03 1.03 1.01 0.97 0.95 0.91 0.89 0.87 0.83 0.77 0.75 0.73 0.69 0.67 0.63 0.63 0.65 0.67 0.69 0.71 0.71 0.73 0.75 0.75 0.75 0.75 0.75 0.77 0.77 0.77 0.77 0.77 0.77 0.75 0.73 0.73 0.71 0.69 0.69 0.67 0.67 0.67 0.65 0.65 0.65 0.65 0.69 0.69 0.67 0.63 0.59 0.57 0.55 0.53 0.51
1.03 1.03 1.03 1.05 1.07 1.05 1.03 1.03 1.01 1.01 0.99 0.99 0.99 0.99 0.99 0.99 0.99 0.97 0.95 0.91 0.89 0.85 0.81 0.75 0.71 0.69 0.67 0.65 0.63 0.63 0.65 0.69 0.71 0.71 0.73 0.73 0.75 0.75 0.77 0.77 0.77 0.77 0.77 0.77 0.77 0.75 0.73 0.71 0.69 0.69 0.67 0.67 0.65 0.65 0.65 0.65 0.63 0.63 0.63 0.65 0.65 0.63 0.61 0.57 0.57 0.55 0.53 0.51 0.50
1.03 1.03 1.03 1.03 1.05 1.05 1.03 1.03 1.01 1.01 0.99 0.99 0.97 0.97 0.97 0.97 0.97 0.95 0.93 0.91 0.87 0.83 0.77 0.75 0.71 0.69 0.67 0.63 0.63 0.63 0.65 0.69 0.71 0.73 0.75 0.75 0.77 0.77 0.79 0.79 0.77 0.77 0.77 0.77 0.75 0.71 0.69 0.67 0.67 0.67 0.65 0.65 0.65 0.63 0.63 0.63 0.63 0.63 0.65 0.65 0.61 0.59 0.57 0.55 0.53 0.51 0.51 0.50 0.46
1.03 1.03 1.03 1.03 1.03 1.03 1.03 1.03 1.01 1.01 0.99 0.97 0.97 0.95 0.95 0.93 0.93 0.93 0.91 0.89 0.83 0.79 0.77 0.73 0.71 0.69 0.67 0.63 0.63 0.65 0.67 0.71 0.73 0.75 0.75 0.77 0.77 0.77 0.77 0.77 0.77 0.75 0.75 0.75 0.71 0.69 0.69 0.67 0.67 0.67 0.67 0.67 0.67 0.67 0.65 0.65 0.65 0.65 0.65 0.63 0.57 0.53 0.53 0.51 0.51 0.50 0.48 0.46 0.44
1.01 1.01 1.01 0.99 0.99 0.99 0.99 1.01 1.01 1.01 0.99 0.97 0.97 0.95 0.93 0.93 0.91 0.89 0.87 0.85 0.83 0.79 0.75 0.73 0.69 0.67 0.65 0.63 0.67 0.69 0.71 0.73 0.75 0.75 0.75 0.75 0.75 0.75 0.75 0.75 0.75 0.73 0.73 0.73 0.71 0.69 0.69 0.69 0.69 0.69 0.69 0.69 0.69 0.69 0.67 0.67 0.67 0.67 0.63 0.59 0.55 0.51 0.50 0.48 0.48 0.48 0.46 0.44 0.44
0.99 0.99 0.99 0.99 0.97 0.97 0.97 0.95 0.95 0.95 0.97 0.97 0.95 0.95 0.93 0.91 0.91 0.89 0.87 0.85 0.81 0.77 0.73 0.71 0.67 0.65 0.67 0.67 0.69 0.71 0.73 0.75 0.75 0.75 0.75 0.75 0.73 0.73 0.73 0.73 0.73 0.73 0.71 0.71 0.71 0.71 0.69 0.69 0.69 0.69 0.69 0.69 0.69 0.67 0.69 0.69 0.65 0.61 0.57 0.53 0.51 0.48 0.46 0.46 0.46 0.46 0.44 0.42 0.42
0.95 0.99 0.99 0.99 0.97 0.97 0.97 0.97 0.95 0.95 0.93 0.93 0.93 0.93 0.91 0.91 0.91 0.89 0.85 0.81 0.79 0.75 0.71 0.69 0.67 0.67 0.69 0.71 0.73 0.75 0.77 0.77 0.75 0.75 0.73 0.73 0.73 0.71 0.71 0.71 0.71 0.71 0.71 0.71 0.71 0.71 0.71 0.69 0.69 0.69 0.67 0.67 0.67 0.69 0.69 0.67 0.59 0.53 0.51 0.50 0.48 0.46 0.44 0.44 0.44 0.42 0.42 0.40 0.40
0.91 0.95 0.99 0.99 0.97 0.97 0.97 0.97 0.97 0.95 0.91 0.91 0.91 0.91 0.91 0.91 0.89 0.87 0.83 0.79 0.75 0.73 0.69 0.69 0.69 0.71 0.73 0.75 0.77 0.77 0.77 0.77 0.75 0.73 0.73 0.71 0.71 0.69 0.69 0.69 0.69 0.71 0.71 0.71 0.73 0.71 0.71 0.71 0.69 0.67 0.67 0.67 0.69 0.69 0.67 0.59 0.53 0.50 0.46 0.44 0.44 0.42 0.42 0.42 0.42 0.40 0.38 0.38 0.36
0.87 0.91 0.95 0.95 0.95 0.97 0.97 0.95 0.95 0.95 0.93 0.89 0.89 0.89 0.89 0.89 0.89 0.85 0.81 0.77 0.75 0.73 0.71 0.71 0.73 0.75 0.77 0.77 0.77 0.77 0.75 0.75 0.73 0.73 0.71 0.71 0.69 0.69 0.69 0.69 0.69 0.71 0.73 0.73 0.73 0.73 0.71 0.71 0.69 0.69 0.69 0.69 0.69 0.67 0.61 0.53 0.50 0.48 0.44 0.42 0.42 0.40 0.40 0.40 0.40 0.40 0.38 0.36 0.36
0.83 0.87 0.93 0.93 0.93 0.95 0.95 0.95 0.95 0.95 0.93 0.91 0.89 0.89 0.89 0.89 0.87 0.85 0.79 0.77 0.75 0.75 0.75 0.75 0.77 0.77 0.77 0.77 0.77 0.75 0.75 0.73 0.73 0.71 0.71 0.71 0.71 0.71 0.71 0.71 0.71 0.73 0.73 0.73 0.73 0.71 0.71 0.69 0.69 0.69 0.69 0.67 0.63 0.59 0.53 0.50 0.48 0.46 0.44 0.42 0.42 0.40 0.40 0.40 0.40 0.40 0.38 0.38 0.36
0.81 0.85 0.89 0.89 0.91 0.91 0.93 0.95 0.95 0.93 0.93 0.91 0.91 0.91 0.89 0.89 0.89 0.85 0.81 0.81 0.79 0.79 0.79 0.79 0.79 0.77 0.77 0.77 0.75 0.75 0.73 0.73 0.73 0.71 0.71 0.71 0.71 0.71 0.71 0.71 0.71 0.71 0.71 0.71 0.71 0.69 0.69 0.69 0.71 0.69 0.67 0.61 0.57 0.51 0.48 0.46 0.46 0.44 0.44 0.42 0.42 0.42 0.40 0.40 0.40 0.40 0.38 0.38 0.36
0.79 0.83 0.85 0.87 0.87 0.89 0.91 0.93 0.93 0.93 0.93 0.91 0.91 0.91 0.91 0.89 0.89 0.87 0.85 0.85 0.85 0.83 0.81 0.79 0.79 0.77 0.75 0.75 0.75 0.73 0.73 0.73 0.73 0.71 0.71 0.69 0.71 0.71 0.71 0.71 0.71 0.71 0.71 0.69 0.69 0.69 0.69 0.69 0.69 0.65 0.61 0.55 0.51 0.48 0.44 0.44 0.44 0.42 0.42 0.42 0.40 0.40 0.40 0.40 0.38 0.38 0.38 0.38 0.36
0.79 0.81 0.83 0.85 0.87 0.87 0.89 0.91 0.91 0.93 0.93 0.93 0.93 0.91 0.91 0.91 0.91 0.91 0.89 0.89 0.85 0.83 0.81 0.79 0.77 0.77 0.75 0.73 0.73 0.73 0.73 0.71 0.71 0.71 0.71 0.71 0.71 0.73 0.73 0.73 0.71 0.71 0.69 0.69 0.69 0.69 0.67 0.65 0.61 0.57 0.55 0.51 0.48 0.44 0.42 0.42 0.42 0.40 0.40 0.40 0.40 0.40 0.38 0.38 0.36 0.36 0.36 0.36 0.36
0.77 0.79 0.81 0.83 0.85 0.87 0.89 0.89 0.91 0.91 0.93 0.93 0.93 0.93 0.93 0.93 0.93 0.91 0.89 0.87 0.85 0.83 0.79 0.77 0.77 0.75 0.73 0.73 0.73 0.73 0.73 0.73 0.71 0.71 0.71 0.71 0.73 0.73 0.71 0.71 0.71 0.71 0.71 0.71 0.69 0.65 0.61 0.57 0.53 0.51 0.50 0.48 0.44 0.42 0.42 0.40 0.40 0.40 0.38 0.38 0.38 0.38 0.38 0.36 0.36 0.36 0.36 0.36 0.36
0.75 0.79 0.79 0.81 0.83 0.85 0.87 0.89 0.91 0.91 0.93 0.93 0.93 0.93 0.93 0.93 0.93 0.91 0.87 0.85 0.83 0.81 0.79 0.77 0.75 0.73 0.73 0.73 0.73 0.73 0.73 0.73 0.73 0.73 0.73 0.73 0.71 0.71 0.71 0.71 0.71 0.71 0.69 0.67 0.65 0.59 0.53 0.51 0.50 0.48 0.46 0.46 0.42 0.40 0.40 0.38 0.38 0.38 0.36 0.36 0.36 0.36 0.36 0.34 0.34 0.34 0.34 0.36 0.36
0.75 0.77 0.79 0.81 0.83 0.85 0.85 0.87 0.89 0.91 0.93 0.93 0.93 0.93 0.93 0.93 0.93 0.89 0.87 0.83 0.81 0.79 0.77 0.75 0.73 0.73 0.73 0.73 0.73 0.73 0.73 0.75 0.73 0.73 0.73 0.71 0.71 0.71 0.71 0.69 0.69 0.67 0.63 0.61 0.57 0.53 0.50 0.48 0.46 0.44 0.42 0.40 0.38 0.38 0.36 0.36 0.36 0.34 0.34 0.34 0.34 0.34 0.34 0.32 0.34 0.34 0.34 0.34 0.36
0.75 0.77 0.79 0.81 0.83 0.85 0.87 0.89 0.91 0.93 0.93 0.93 0.93 0.93 0.91 0.91 0.89 0.87 0.85 0.83 0.81 0.79 0.77 0.75 0.75 0.73 0.73 0.73 0.73 0.73 0.73 0.73 0.73 0.73 0.73 0.73 0.71 0.71 0.69 0.67 0.63 0.59 0.55 0.53 0.51 0.50 0.46 0.44 0.42 0.42 0.40 0.38 0.36 0.36 0.34 0.34 0.34 0.32 0.32 0.32 0.32 0.32 0.32 0.32 0.32 0.34 0.34 0.34 0.34
0.77 0.79 0.81 0.83 0.87 0.89 0.91 0.91 0.91 0.91 0.91 0.91 0.91 0.91 0.89 0.89 0.87 0.87 0.85 0.81 0.81 0.79 0.77 0.77 0.75 0.75 0.75 0.75 0.75 0.73 0.73 0.73 0.73 0.73 0.73 0.73 0.71 0.69 0.67 0.61 0.57 0.53 0.51 0.50 0.48 0.46 0.44 0.42 0.40 0.38 0.38 0.36 0.34 0.34 0.34 0.32 0.32 0.32 0.32 0.32 0.32 0.32 0.32 0.32 0.34 0.34 0.34 0.34 0.34
0.77 0.81 0.83 0.87 0.89 0.91 0.91 0.91 0.91 0.89 0.89 0.89 0.89 0.89 0.89 0.87 0.87 0.85 0.85 0.81 0.81 0.79 0.77 0.77 0.75 0.75 0.77 0.77 0.75 0.75 0.75 0.75 0.75 0.73 0.73 0.71 0.69 0.65 0.61 0.55 0.51 0.50 0.48 0.48 0.46 0.44 0.42 0.42 0.40 0.38 0.36 0.34 0.34 0.34 0.32 0.32 0.32 0.32 0.32 0.32 0.32 0.32 0.32 0.34 0.34 0.34 0.34 0.34 0.34
0.79 0.81 0.85 0.87 0.89 0.89 0.89 0.89 0.89 0.87 0.87 0.87 0.89 0.87 0.87 0.87 0.85 0.85 0.83 0.81 0.79 0.79 0.79 0.77 0.77 0.77 0.77 0.77 0.77 0.77 0.77 0.75 0.73 0.71 0.69 0.67 0.63 0.59 0.57 0.53 0.50 0.48 0.46 0.46 0.44 0.44 0.42 0.40 0.38 0.36 0.34 0.34 0.32 0.32 0.32 0.32 0.32 0.32 0.32 0.32 0.32 0.32 0.32 0.34 0.34 0.34 0.36 0.36 0.36
0.81 0.83 0.85 0.85 0.85 0.87 0.87 0.87 0.87 0.87 0.87 0.87 0.87 0.87 0.87 0.85 0.85 0.83 0.83 0.81 0.79 0.79 0.79 0.79 0.79 0.79 0.79 0.79 0.79 0.77 0.75 0.73 0.71 0.67 0.63 0.61 0.57 0.53 0.51 0.50 0.48 0.46 0.46 0.44 0.42 0.42 0.40 0.38 0.36 0.34 0.34 0.32 0.32 0.32 0.32 0.32 0.32 0.32 0.32 0.32 0.34 0.34 0.34 0.34 0.34 0.34 0.36 0.36 0.36
0.81 0.81 0.81 0.81 0.81 0.83 0.83 0.85 0.85 0.85 0.87 0.87 0.87 0.85 0.85 0.85 0.83 0.83 0.81 0.81 0.79 0.79 0.79 0.79 0.79 0.79 0.79 0.79 0.79 0.77 0.73 0.69 0.65 0.61 0.57 0.53 0.51 0.50 0.48 0.46 0.46 0.44 0.42 0.40 0.40 0.38 0.38 0.36 0.34 0.34 0.34 0.32 0.32 0.32 0.32 0.32 0.34 0.34 0.34 0.34 0.34 0.34 0.34 0.34 0.34 0.36 0.36 0.38 0.38
0.81 0.81 0.79 0.79 0.79 0.81 0.81 0.83 0.83 0.85 0.85 0.85 0.85 0.85 0.83 0.83 0.83 0.81 0.81 0.79 0.79 0.79 0.79 0.79 0.79 0.79 0.79 0.77 0.75 0.71 0.67 0.61 0.57 0.55 0.51 0.50 0.48 0.46 0.46 0.44 0.42 0.42 0.40 0.38 0.36 0.36 0.34 0.34 0.34 0.32 0.34 0.34 0.34 0.34 0.34 0.34 0.34 0.34 0.34 0.34 0.34 0.34 0.34 0.34 0.36 0.36 0.38 0.38 0.40
0.79 0.79 0.79 0.77 0.79 0.79 0.81 0.81 0.81 0.83 0.83 0.83 0.83 0.83 0.81 0.81 0.81 0.79 0.79 0.79 0.79 0.79 0.79 0.79 0.77 0.75 0.73 0.71 0.69 0.65 0.61 0.55 0.51 0.50 0.48 0.46 0.44 0.44 0.42 0.40 0.40 0.38 0.38 0.36 0.36 0.34 0.34 0.32 0.32 0.32 0.34 0.34 0.34 0.34 0.34 0.34 0.34 0.34 0.34 0.34 0.34 0.36 0.36 0.36 0.38 0.38 0.38 0.40 0.40
0.79 0.79 0.79 0.79 0.79 0.79 0.79 0.79 0.81 0.81 0.83 0.81 0.81 0.81 0.79 0.79 0.79 0.79 0.77 0.77 0.77 0.77 0.75 0.75 0.73 0.69 0.67 0.65 0.61 0.59 0.55 0.53 0.50 0.46 0.44 0.44 0.42 0.40 0.40 0.38 0.36 0.36 0.36 0.34 0.34 0.32 0.32 0.32 0.32 0.32 0.32 0.34 0.34 0.34 0.34 0.34 0.34 0.34 0.34 0.36 0.36 0.36 0.38 0.38 0.38 0.38 0.40 0.40 0.42
0.79 0.79 0.79 0.79 0.79 0.79 0.79 0.79 0.81 0.81 0.81 0.81 0.79 0.79 0.79 0.77 0.77 0.77 0.77 0.75 0.73 0.73 0.71 0.69 0.67 0.63 0.61 0.59 0.55 0.53 0.50 0.48 0.46 0.44 0.42 0.40 0.38 0.38 0.36 0.36 0.34 0.34 0.34 0.34 0.32 0.32 0.32 0.32 0.32 0.32 0.32 0.32 0.32 0.32 0.34 0.34 0.34 0.34 0.34 0.36 0.36 0.38 0.38 0.38 0.40 0.40 0.40 0.42 0.42
0.79 0.79 0.79 0.79 0.79 0.79 0.79 0.79 0.79 0.79 0.79 0.79 0.79 0.77 0.77 0.75 0.75 0.75 0.73 0.73 0.71 0.67 0.65 0.63 0.59 0.57 0.55 0.51 0.50 0.48 0.46 0.46 0.44 0.42 0.40 0.38 0.36 0.34 0.34 0.34 0.32 0.32 0.32 0.32 0.32 0.32 0.32 0.30 0.30 0.32 0.32 0.32 0.32 0.32 0.32 0.34 0.34 0.34 0.34 0.36 0.38 0.38 0.38 0.40 0.40 0.40 0.42 0.42 0.44
0.79 0.79 0.79 0.79 0.77 0.77 0.77 0.77 0.77 0.77 0.77 0.75 0.75 0.75 0.75 0.73 0.73 0.71 0.69 0.69 0.67 0.63 0.59 0.57 0.55 0.51 0.50 0.48 0.46 0.44 0.44 0.42 0.42 0.40 0.36 0.36 0.34 0.32 0.32 0.32 0.32 0.32 0.32 0.32 0.30 0.30 0.30 0.30 0.30 0.30 0.30 0.30 0.32 0.32 0.32 0.34 0.34 0.34 0.36 0.36 0.36 0.38 0.40 0.40 0.40 0.42 0.42 0.42 0.44
0.79 0.79 0.79 0.77 0.77 0.77 0.77 0.77 0.75 0.75 0.75 0.73 0.73 0.73 0.71 0.71 0.69 0.67 0.67 0.65 0.63 0.59 0.55 0.53 0.51 0.50 0.48 0.46 0.44 0.42 0.40 0.40 0.38 0.38 0.36 0.34 0.32 0.32 0.30 0.30 0.30 0.30 0.30 0.30 0.30 0.30 0.30 0.30 0.30 0.30 0.30 0.30 0.32 0.32 0.32 0.34 0.34 0.34 0.34 0.36 0.36 0.38 0.40 0.40 0.42 0.44 0.44 0.44 0.46
0.79 0.77 0.77 0.77 0.77 0.75 0.75 0.75 0.75 0.73 0.73 0.71 0.71 0.69 0.69 0.67 0.67 0.65 0.63 0.61 0.59 0.55 0.51 0.50 0.48 0.46 0.44 0.44 0.42 0.40 0.38 0.38 0.36 0.36 0.34 0.32 0.30 0.30 0.30 0.30 0.30 0.30 0.30 0.30 0.30 0.30 0.30 0.30 0.28 0.30 0.30 0.30 0.30 0.32 0.32 0.32 0.34 0.34 0.34 0.36 0.38 0.38 0.40 0.42 0.42 0.44 0.46 0.46 0.46
0.77 0.77 0.77 0.75 0.75 0.75 0.75 0.73 0.71 0.71 0.69 0.69 0.67 0.67 0.65 0.65 0.63 0.61 0.59 0.57 0.55 0.51 0.48 0.46 0.44 0.42 0.42 0.40 0.40 0.38 0.36 0.34 0.34 0.32 0.32 0.30 0.30 0.28 0.28 0.28 0.30 0.30 0.30 0.30 0.30 0.30 0.28 0.28 0.28 0.28 0.30 0.30 0.30 0.32 0.32 0.32 0.34 0.34 0.36 0.36 0.38 0.40 0.40 0.42 0.44 0.44 0.46 0.46 0.46
0.77 0.77 0.75 0.75 0.73 0.73 0.71 0.69 0.69 0.67 0.67 0.65 0.63 0.63 0.61 0.59 0.57 0.57 0.55 0.53 0.50 0.48 0.44 0.42 0.40 0.38 0.38 0.36 0.36 0.34 0.34 0.32 0.32 0.30 0.30 0.30 0.28 0.28 0.28 0.28 0.28 0.28 0.30 0.30 0.30 0.28 0.28 0.28 0.28 0.28 0.28 0.30 0.30 0.30 0.32 0.32 0.34 0.36 0.36 0.38 0.38 0.40 0.42 0.42 0.44 0.44 0.46 0.46 0.48
0.75 0.75 0.73 0.71 0.71 0.69 0.67 0.65 0.63 0.61 0.61 0.59 0.59 0.57 0.55 0.55 0.53 0.51 0.50 0.48 0.46 0.44 0.40 0.38 0.36 0.36 0.34 0.34 0.32 0.32 0.32 0.32 0.30 0.30 0.28 0.28 0.28 0.28 0.26 0.28 0.28 0.28 0.30 0.30 0.28 0.28 0.28 0.28 0.28 0.28 0.30 0.30 0.30 0.30 0.32 0.32 0.34 0.36 0.36 0.38 0.38 0.40 0.42 0.42 0.44 0.44 0.46 0.46 0.48
0.75 0.73 0.71 0.69 0.67 0.65 0.63 0.59 0.59 0.57 0.57 0.55 0.53 0.53 0.51 0.51 0.50 0.48 0.46 0.44 0.42 0.40 0.38 0.36 0.34 0.34 0.32 0.32 0.30 0.30 0.30 0.30 0.28 0.28 0.28 0.26 0.26 0.26 0.26 0.26 0.28 0.28 0.28 0.28 0.28 0.28 0.28 0.28 0.28 0.30 0.30 0.30 0.30 0.30 0.32 0.32 0.34 0.34 0.36 0.36 0.38 0.40 0.42 0.42 0.44 0.44 0.46 0.46 0.48
0.73 0.71 0.69 0.67 0.65 0.63 0.59 0.57 0.55 0.55 0.53 0.51 0.51 0.50 0.48 0.46 0.44 0.42 0.42 0.40 0.38 0.36 0.36 0.34 0.32 0.30 0.30 0.30 0.28 0.28 0.28 0.28 0.28 0.28 0.26 0.26 0.26 0.26 0.26 0.26 0.26 0.28 0.28 0.28 0.28 0.28 0.28 0.28 0.30 0.30 0.30 0.30 0.32 0.32 0.32 0.32 0.32 0.34 0.34 0.36 0.38 0.38 0.40 0.42 0.44 0.44 0.46 0.46 0.48
0.73 0.71 0.67 0.65 0.63 0.61 0.59 0.55 0.53 0.53 0.51 0.50 0.48 0.46 0.44 0.42 0.40 0.38 0.38 0.36 0.36 0.34 0.32 0.32 0.30 0.30 0.28 0.28 0.28 0.26 0.26 0.26 0.26 0.26 0.26 0.26 0.26 0.26 0.26 0.26 0.26 0.26 0.28 0.28 0.28 0.28 0.30 0.30 0.30 0.30 0.30 0.32 0.32 0.32 0.32 0.32 0.32 0.32 0.34 0.34 0.36 0.38 0.40 0.42 0.42 0.44 0.46 0.46 0.48
Wind_Speed
42 41 40 39 39 38 38 38 38 38 38 38 37 37 37 37 36 36 36 36 36 36 36 36 36 36 35 35 35 34 34 34 33 33 32 32 32 32 31 31 31 31 31 31 30 30 30 30 30 29 29 29 29 29 29 29 29 29 29 28 28 28 28 30 31 33 35 35 35
42 41 40 39 38 38 37 37 37 38 38 38 38 37 37 37 36 36 36 36 36 36 36 36 36 36 36 35 35 34 34 33 33 32 32 32 31 31 31 31 31 31 31 30 30 30 30 30 30 29 29 29 29 29 30 30 29 29 29 29 28 29 30 32 34 35 35 34 34
42 41 40 39 38 37 37 37 37 37 37 37 37 37 37 36 36 36 36 35 35 35 36 36 36 36 36 35 35 34 34 33 33 32 32 31 31 31 31 31 31 31 30 30 30 30 30 30 30 30 29 29 29 29 30 30 29 29 29 28 29 30 32 34 35 34 34 33 33
41 41 40 39 38 37 37 36 37 37 37 37 37 37 36 36 36 36 35 35 35 35 35 36 36 36 36 36 35 35 34 33 33 32 32 31 31 31 31 31 30 30 30 30 30 30 30 30 29 29 29 29 29 29 29 29 29 29 28 29 30 32 34 35 34 33 33 32 32
40 40 40 39 38 37 37 37 37 37 37 37 37 37 36 36 36 36 35 35 35 35 35 36 36 36 36 36 35 35 34 33 33 32 32 32 31 31 31 30 30 30 30 30 30 30 30 29 29 29 29 29 29 29 29 29 29 29 29 30 32 34 35 34 33 32 32 32 32
39 40 40 40 39 38 37 37 37 37 37 37 37 37 36 36 36 36 35 35 35 35 35 35 36 36 36 36 35 35 34 34 33 33 32 32 32 31 31 31 30 30 30 30 30 30 30 29 29 29 29 29 29 29 29 29 29 29 30 31 34 35 34 32 32 32 32 32 32
39 39 40 40 39 38 38 37 37 37 37 37 37 37 37 36 36 36 35 35 35 35 35 35 36 36 36 36 36 35 35 34 34 33 33 32 32 32 31 31 31 31 31 30 30 30 30 29 29 29 29 29 29 29 29 29 29 29 31 33 35 34 32 32 32 32 33 32 32
38 39 39 40 40 39 39 38 38 37 37 37 37 37 37 37 36 36 35 35 34 34 35 35 36 36 36 36 36 36 35 34 34 33 33 33 32 32 32 31 31 31 31 30 30 30 29 29 29 29 30 30 30 29 29 29 30 31 33 34 34 33 32 32 32 32 32 32 32
38 38 39 39 40 40 39 39 38 38 37 37 37 37 37 37 36 36 35 34 34 34 34 34 35 36 36 36 36 36 35 35 34 34 34 33 32 32 32 31 31 31 31 30 30 30 29 29 29 30 30 30 30 30 30 31 32 33 34 34 32 32 32 32 32 32 32 32 32
38 38 38 39 39 39 39 39 39 38 38 37 36 36 36 36 36 35 35 35 34 34 33 34 35 36 36 36 36 36 36 35 35 34 34 33 33 32 31 31 31 31 30 30 30 29 29 29 29 30 30 30 30 31 32 33 34 34 34 32 31 31 31 32 32 32 32 32 31
37 38 38 38 38 38 38 38 39 39 38 37 36 35 35 36 35 35 35 35 34 33 33 34 35 36 36 36 36 36 36 35 35 34 34 33 32 32 31 31 30 30 30 30 29 29 29 29 29 30 30 30 31 32 33 35 34 33 31 30 31 31 31 31 31 31 31 31 31
36 37 37 37 37 37 37 37 38 38 38 37 36 35 35 35 35 35 35 35 34 33 34 34 35 36 36 36 36 36 35 35 34 34 33 33 32 31 31 30 30 29 29 29 29 29 28 29 29 29 30 30 32 34 35 34 32 31 30 30 30 30 30 30 30 31 31 31 30
35 35 35 35 35 35 35 36 36 36 36 36 36 35 35 35 35 35 35 35 34 33 34 34 35 35 36 36 36 35 35 34 34 33 33 32 32 31 30 30 29 29 29 28 28 28 28 29 29 29 30 32 34 34 34 32 30 29 29 29 29 29 29 29 29 29 29 29 29
35 35 35 34 34 34 34 34 35 35 35 35 35 35 35 35 35 35 35 34 33 33 33 34 34 35 35 35 35 35 34 34 33 32 32 32 31 30 30 29 29 28 28 27 27 28 28 29 29 30 32 33 34 33 31 29 28 28 28 28 28 28 28 28 28 28 28 28 28
34 35 35 34 34 33 34 34 34 35 35 35 35 35 35 35 34 34 34 33 33 33 33 33 34 34 35 35 35 34 34 33 32 32 31 31 30 30 29 28 28 27 27 26 27 27 28 28 30 32 33 33 31 29 28 27 27 27 27 27 27 27 27 27 27 27 27 27 27
34 35 35 35 34 34 34 34 35 35 35 35 35 35 34 34 33 33 33 33 32 32 33 33 33 34 34 34 34 33 33 32 32 31 30 29 29 28 27 26 26 26 26 26 26 27 28 30 32 32 31 29 27 26 26 26 26 26 26 25 25 25 25 25 25 25 25 26 26
34 35 35 36 35 34 34 34 34 34 34 34 34 34 34 33 33 32 32 32 32 32 32 33 33 34 34 33 33 33 32 31 31 30 29 27 26 26 25 25 25 25 25 26 26 28 30 31 31 30 28 26 25 25 25 25 25 25 24 24 24 23 23 23 24 24 24 25 26
34 35 36 36 35 35 34 34 34 34 34 34 34 34 34 33 32 32 32 32 32 32 32 33 33 33 32 32 31 31 30 30 30 29 27 26 25 24 24 25 25 25 25 26 27 29 30 30 28 26 24 24 24 24 24 24 24 23 23 23 22 22 22 23 23 24 24 25 26
34 35 35 36 36 35 34 33 33 33 33 34 34 34 33 33 32 31 31 31 32 32 32 32 32 32 31 31 30 29 29 29 28 27 26 25 24 24 24 24 25 25 26 27 29 29 28 26 24 23 23 23 23 23 23 23 22 21 21 21 21 22 22 23 23 24 25 26 26
34 34 35 36 36 35 34 33 32 32 32 33 33 33 32 32 31 31 31 31 31 31 31 31 31 31 31 30 29 28 28 27 27 26 26 25 24 24 24 24 25 26 27 28 28 26 24 22 22 22 22 22 22 22 21 21 20 20 20 20 21 21 22 23 24 25 26 26 27
34 35 36 36 36 35 33 32 31 31 32 32 33 32 32 31 31 30 30 30 30 30 30 30 30 30 30 29 29 28 27 26 26 25 25 24 24 24 24 24 25 27 27 26 24 22 21 21 21 21 21 21 20 20 19 19 19 19 20 20 21 21 22 23 24 25 26 27 28
35 35 36 36 35 34 33 32 32 32 33 34 33 33 31 31 30 30 30 30 30 30 30 30 29 29 28 28 28 27 26 25 25 24 24 24 24 23 24 25 26 26 24 22 20 19 19 20 20 20 19 19 18 18 18 18 18 18 19 20 21 21 22 23 24 25 26 27 28
36 36 35 34 33 32 32 33 34 35 35 35 33 32 31 30 29 29 29 29 29 29 29 29 28 27 27 27 27 27 26 25 24 24 23 23 23 23 25 25 24 22 20 19 18 18 18 18 18 18 17 17 16 16 16 17 17 18 19 20 20 21 22 23 24 25 26 27 28
36 35 34 32 30 30 32 34 35 36 35 33 32 31 30 29 29 29 29 29 29 29 28 28 27 26 26 26 27 27 26 25 24 23 22 22 23 24 24 23 20 18 17 17 17 17 17 17 16 16 15 15 15 16 16 17 17 18 19 20 21 21 22 23 24 24 25 26 27
35 34 32 30 29 30 32 34 34 34 33 31 30 30 29 29 29 29 28 28 28 27 27 27 26 26 26 26 26 26 25 24 23 22 22 23 23 23 21 19 17 16 16 16 15 15 15 15 14 14 14 14 15 15 16 17 18 18 19 20 21 21 22 23 24 25 25 26 27
34 32 31 30 29 30 31 31 32 31 30 29 28 28 28 29 29 29 28 27 26 26 26 27 26 26 26 26 25 24 23 22 22 22 23 23 21 19 17 15 15 15 15 14 14 13 13 13 13 13 13 14 15 15 16 17 18 19 19 20 20 21 22 23 24 24 25 26 26
33 31 31 30 30 30 30 30 30 29 28 27 27 28 28 29 29 28 27 26 26 26 26 27 26 26 25 24 23 21 21 21 22 22 21 20 17 15 14 14 14 14 13 13 12 12 12 11 12 12 13 14 15 16 17 17 18 18 19 20 20 21 22 23 24 24 25 25 25
32 32 31 31 30 30 30 29 29 29 28 27 27 28 28 29 28 28 27 27 26 26 26 26 25 24 23 21 20 19 20 21 21 20 18 16 14 13 12 13 13 13 12 11 11 11 10 11 11 12 13 15 15 16 17 17 18 18 19 19 20 21 22 23 23 24 24 25 25
32 32 32 31 31 30 30 30 29 29 28 28 28 28 28 28 27 27 27 27 27 26 25 24 23 21 19 18 18 19 20 20 18 16 14 13 12 12 12 12 12 11 10 10 9 9 10 11 12 13 14 15 15 16 16 17 17 18 19 19 20 21 22 23 23 24 24 24 24
32 32 32 31 31 30 29 29 29 29 29 28 28 27 27 27 26 26 26 26 26 25 23 22 20 18 17 18 19 19 18 17 15 13 12 11 11 11 11 11 10 10 9 8 8 9 10 11 12 13 14 15 15 16 16 17 17 18 19 19 20 21 22 22 23 23 23 23 23
31 31 31 31 30 29 28 27 28 28 28 27 27 27 26 26 25 25 24 24 23 22 21 19 18 18 18 19 18 17 15 14 13 12 11 11 11 11 10 9 9 8 7 8 8 9 10 12 13 13 14 14 15 15 16 17 17 18 18 19 20 21 21 22 22 22 23 22 22
31 31 30 30 29 28 27 26 26 26 26 26 26 25 25 24 24 23 23 22 21 20 19 19 19 19 18 17 16 14 13 12 12 11 11 11 10 9 8 7 7 7 7 8 9 10 11 12 13 13 14 14 15 15 16 17 17 18 18 19 20 20 21 21 21 21 21 21 21
30 29 29 28 27 26 25 25 24 24 24 24 24 24 23 23 22 22 21 21 20 20 20 19 19 18 16 15 14 13 13 12 11 11 11 10 9 7 6 5 6 6 7 8 9 10 11 12 13 13 14 14 15 15 16 16 17 17 18 18 19 19 20 20 20 20 20 20 19
29 28 27 27 26 25 24 23 23 23 23 23 22 22 22 21 21 21 21 21 21 20 19 18 17 16 15 14 14 13 12 12 11 11 9 8 7 5 5 5 5 6 7 8 9 10 11 12 13 13 14 14 15 15 15 16 16 17 18 18 18 19 19 19 19 19 18 18 18
27 27 26 26 25 24 23 22 22 22 22 22 21 21 21 21 21 22 22 21 20 19 18 17 15 15 14 14 13 13 12 12 11 10 8 6 5 4 4 5 6 6 7 8 9 10 11 12 12 13 13 14 14 15 15 16 16 17 17 18 18 18 18 18 18 17 17 17 17
27 26 25 24 23 22 21 21 21 21 20 20 21 21 21 21 22 21 21 20 19 17 16 15 15 14 14 14 13 13 12 11 10 8 7 5 4 4 4 5 6 6 7 8 9 10 11 11 12 12 13 13 14 15 15 15 16 16 17 17 17 17 17 17 17 17 17 16 17
26 25 24 23 22 21 20 19 19 19 19 20 21 21 21 21 21 20 19 18 17 17 16 16 15 15 15 14 13 12 11 10 8 7 5 4 4 3 4 5 6 7 8 8 9 10 10 11 11 12 13 13 14 14 15 15 15 16 16 16 16 16 16 16 16 16 16 16 16
26 25 24 23 22 21 19 19 19 20 20 21 21 21 21 20 19 18 18 17 17 17 17 17 16 16 15 14 13 11 10 8 7 6 5 4 3 3 4 5 6 7 8 8 9 9 10 10 11 11 12 13 13 14 14 15 15 15 15 16 16 16 16 16 16 16 16 16 16
26 25 25 24 23 22 20 20 20 21 22 22 22 21 20 20 19 19 18 18 18 18 18 17 17 16 15 13 12 10 9 7 6 5 4 3 3 3 4 5 6 7 8 8 9 9 10 10 11 11 12 13 13 14 14 14 15 15 15 16 16 16 15 15 15 15 15 15 15
26 25 24 24 24 23 22 22 22 23 23 23 22 21 21 20 20 20 20 19 19 19 18 17 16 15 14 12 11 9 8 7 5 4 3 3 3 3 4 5 6 7 8 8 8 9 9 10 11 11 12 13 13 14 14 14 15 15 15 15 15 15 15 15 15 15 15 15 15
24 24 24 24 24 24 24 24 24 24 24 24 23 22 22 22 21 21 20 20 19 19 18 17 16 14 13 11 10 9 7 6 5 3 3 2 2 3 4 5 6 7 8 8 8 9 9 10 11 11 12 13 13 14 14 15 15 15 15 15 15 15 14 14 14 14 14 14 14
Wind_Direction
219 217 217 217 218 218 219 220 221 221 222 223 223 223 223 223 223 224 224 225 225 225 225 225 225 225 225 225 225 225 226 226 227 228 229 230 232 233 235 236 237 238 239 240 242 245 247 249 250 252 253 254 256 257 259 261 262 263 265 266 268 270 274 277 279 281 282 283 283
220 218 217 217 218 218 219 219 220 221 221 222 222 222 222 222 222 223 223 224 225 225 225 225 225 225 225 224 225 225 225 226 226 227 229 230 232 233 234 235 236 238 239 241 243 245 247 249 251 252 253 255 256 258 259 261 262 263 265 266 269 272 276 279 280 281 281 282 282
222 219 218 217 218 218 219 219 220 220 220 221 221 221 221 221 221 221 222 222 223 224 224 225 225 225 225 225 225 226 226 226 227 227 229 230 232 233 234 235 236 238 240 242 244 246 248 249 251 252 253 255 256 258 259 261 262 263 265 268 272 276 278 279 279 279 280 280 281
223 221 219 218 218 218 219 219 219 219 220 220 220 220 220 220 220 220 220 220 220 221 222 223 224 225 225 225 225 226 226 227 227 228 229 230 232 233 234 235 237 239 241 242 244 246 248 250 251 252 253 255 256 258 259 261 262 264 267 271 275 278 279 278 278 278 278 280 280
223 221 220 219 218 219 220 220 219 219 219 220 219 219 219 219 219 219 218 218 218 219 220 222 223 224 225 225 225 225 226 227 228 229 230 231 233 234 236 237 239 241 242 244 245 247 249 250 251 252 253 255 257 258 260 261 263 266 270 274 277 278 278 277 276 277 278 279 279
223 222 221 220 219 219 220 220 219 218 218 218 218 218 218 218 218 218 218 217 217 218 219 220 222 223 224 225 225 225 226 227 228 229 230 232 234 236 238 240 241 243 244 245 247 248 249 250 251 253 254 255 257 259 261 263 266 269 272 276 277 277 276 275 275 277 278 279 279
224 223 222 220 220 219 219 219 218 218 217 217 217 217 217 218 218 217 217 217 217 218 219 220 220 222 223 224 225 226 227 228 229 230 231 233 235 237 239 241 243 244 245 246 247 248 249 250 252 253 255 256 258 261 263 266 268 271 274 276 276 275 274 274 275 277 278 279 279
224 224 222 221 220 219 218 218 217 217 217 216 216 216 216 217 216 216 217 217 217 218 219 220 220 221 222 223 224 226 227 228 229 230 232 233 235 237 239 241 242 243 245 246 247 248 249 251 252 254 256 258 260 263 265 267 269 272 274 275 274 273 272 273 275 277 278 279 279
224 224 223 222 221 220 219 217 217 216 215 215 215 215 215 215 215 215 215 216 217 218 219 219 220 220 221 223 224 226 227 228 229 230 232 234 235 237 239 240 241 243 244 246 247 248 250 251 253 255 257 259 262 264 266 268 271 273 273 272 271 271 272 274 276 277 278 278 278
222 223 223 222 222 220 218 217 216 215 214 213 213 214 214 214 214 214 215 217 217 218 219 219 220 220 221 222 224 225 227 228 229 230 232 233 235 236 238 239 241 242 243 245 247 248 250 252 253 255 258 260 263 266 268 271 272 272 271 270 271 272 273 274 275 277 277 277 277
221 222 223 222 221 220 218 217 216 215 213 212 212 212 213 213 214 214 215 216 216 217 218 219 219 220 220 222 223 225 226 228 229 230 231 233 235 236 238 239 240 242 243 245 247 249 251 253 254 257 259 262 265 268 271 271 271 270 270 271 271 272 273 274 275 276 277 277 276
219 221 222 221 220 219 218 217 216 215 213 211 210 211 213 213 213 213 214 214 215 216 217 218 218 219 220 221 223 224 226 227 228 230 231 232 234 236 237 239 240 242 243 245 247 249 252 254 256 258 261 265 268 270 270 270 270 270 271 272 272 273 274 274 275 276 276 276 276
217 218 219 220 219 217 216 216 215 214 213 212 211 212 212 212 212 212 212 212 213 214 215 216 217 218 219 221 223 224 225 227 228 229 230 232 233 235 237 238 240 242 244 246 248 251 253 255 257 261 264 268 269 269 268 268 269 270 271 272 272 273 274 275 275 275 275 276 276
216 216 217 218 217 216 215 215 215 214 213 212 211 211 211 210 210 210 210 210 211 212 213 215 216 218 219 221 222 224 225 226 227 228 230 231 233 235 236 238 240 243 245 247 250 252 254 257 260 264 267 268 268 267 267 268 270 271 271 272 272 273 274 275 275 275 275 276 276
216 216 216 217 217 216 215 214 214 214 213 212 211 210 210 208 208 208 208 208 209 211 213 214 216 217 219 220 221 223 224 225 226 228 229 231 233 235 237 239 242 244 247 249 251 253 256 261 265 267 267 266 266 266 268 269 270 271 271 272 273 274 274 275 275 276 276 277 278
218 217 216 217 217 216 215 214 214 213 212 212 211 210 209 207 206 206 206 207 209 211 213 214 215 217 218 220 221 222 223 225 226 228 229 231 234 236 238 241 243 246 248 250 252 256 261 265 266 265 265 264 266 267 269 270 270 271 272 273 274 275 275 276 277 278 279 279 280
219 218 217 216 216 215 214 213 213 213 212 212 210 209 208 206 206 206 207 208 210 211 213 214 215 216 218 219 220 222 223 225 227 228 230 232 234 236 239 241 243 246 248 251 256 261 264 264 264 263 264 265 267 268 269 270 271 272 272 273 274 275 276 278 279 281 282 283 284
219 218 217 215 214 213 213 214 214 213 212 212 210 208 207 206 205 206 207 209 210 211 212 214 215 216 217 218 220 221 223 225 227 229 230 232 234 236 239 241 243 247 252 257 260 262 262 261 261 263 265 266 268 268 269 270 271 272 272 274 275 277 278 280 282 283 284 285 285
219 218 216 214 213 212 213 215 216 215 213 211 209 207 205 204 204 204 207 209 210 211 212 213 215 216 216 217 219 221 223 225 227 228 230 232 234 237 239 243 247 253 257 259 259 259 258 259 262 264 266 266 267 268 269 270 271 273 274 276 278 280 281 283 284 284 285 285 285
217 216 214 212 211 212 214 217 217 215 212 209 207 204 202 202 202 203 206 209 211 211 212 213 214 215 216 217 218 220 223 225 227 228 230 232 235 239 243 248 253 256 257 257 256 256 258 261 263 265 265 266 267 268 270 272 273 275 277 279 280 282 283 284 285 285 285 285 285
215 214 212 211 211 212 215 217 216 213 209 206 203 201 200 199 200 203 207 210 211 211 212 212 213 214 215 217 218 220 223 226 227 229 231 234 238 243 248 252 255 254 253 253 255 257 261 263 263 264 265 266 268 270 272 274 276 278 280 281 282 283 284 285 285 285 285 286 285
213 212 210 210 212 214 217 216 213 208 204 202 200 199 198 199 201 205 208 210 211 211 212 212 213 214 215 217 218 220 222 225 227 229 233 237 242 247 250 252 251 250 251 253 256 259 261 262 263 264 266 268 270 273 275 277 279 280 282 283 284 284 285 286 286 287 287 287 286
210 209 209 210 214 218 218 213 208 204 201 199 198 198 198 199 202 206 209 210 211 211 211 212 212 213 215 217 219 220 222 224 228 232 236 241 245 248 248 247 247 248 251 255 257 259 260 262 264 266 268 271 273 276 278 279 281 282 283 284 285 286 287 287 288 288 289 288 288
208 208 208 212 218 219 215 209 204 201 199 198 197 197 197 199 202 206 209 210 210 211 211 212 212 214 215 218 219 221 223 226 230 235 240 244 245 245 244 245 246 250 253 255 256 258 260 262 265 268 271 273 276 278 279 281 282 283 285 286 287 288 289 289 290 290 290 290 289
206 206 209 214 218 217 211 204 201 199 198 197 196 196 196 198 202 206 208 209 209 210 210 212 213 214 217 219 221 223 227 230 234 238 240 241 241 241 242 244 247 250 252 253 255 258 261 263 266 269 273 276 278 280 281 282 283 284 285 287 288 289 290 290 291 291 291 292 291
204 206 210 213 213 209 203 198 196 196 195 195 195 195 196 199 203 206 208 208 208 209 210 212 214 216 218 221 224 227 230 234 236 237 237 236 237 238 240 243 245 248 250 253 256 259 262 265 269 272 275 278 280 281 282 282 283 285 286 288 289 290 291 291 292 293 293 294 294
204 207 209 209 205 199 194 192 193 193 194 194 194 196 198 201 204 206 207 208 208 209 211 213 215 218 221 224 226 229 231 233 233 233 232 232 233 235 238 240 243 246 249 252 256 260 264 268 273 276 279 280 281 281 282 283 284 286 287 289 290 291 292 293 294 295 295 296 296
205 207 207 204 199 194 190 190 191 192 193 194 195 198 200 203 204 206 207 208 209 210 212 214 217 220 223 225 227 228 229 229 228 228 228 228 229 231 234 238 242 245 249 252 257 262 267 273 276 279 280 280 281 282 283 284 286 288 290 291 292 293 293 294 295 296 297 297 297
204 204 202 199 195 192 191 190 189 189 190 192 195 198 201 204 205 206 207 208 210 211 213 215 218 221 222 223 224 224 224 223 222 222 221 221 223 227 232 237 241 245 249 254 260 266 272 276 278 280 280 281 281 283 284 286 288 290 292 293 294 295 295 296 297 297 298 298 298
200 198 196 194 192 190 189 187 187 187 188 191 195 199 202 204 205 206 207 209 210 212 214 216 217 217 217 218 218 217 216 214 213 212 212 214 220 226 232 237 241 246 252 259 266 272 275 277 279 280 281 282 283 285 287 288 290 292 293 295 295 296 297 297 298 299 299 299 299
193 191 190 189 188 186 185 184 184 185 188 191 196 200 203 204 205 206 207 209 210 212 213 213 212 212 212 212 210 207 204 203 203 205 208 214 220 226 231 236 242 249 258 266 272 275 276 278 280 282 283 284 285 287 289 291 293 294 295 296 297 298 299 299 300 301 301 301 301
186 186 185 185 183 182 182 183 184 187 189 193 197 200 202 204 205 206 208 209 210 210 209 208 207 205 203 201 198 195 194 195 198 203 209 215 219 223 228 235 245 255 265 271 274 277 278 280 282 284 285 286 287 289 291 293 294 295 297 298 299 300 300 301 302 303 303 303 302
182 183 183 181 181 181 182 184 187 189 192 195 198 200 202 203 204 206 208 208 208 206 204 201 199 195 191 189 187 187 190 193 198 203 207 210 213 217 224 237 251 262 269 274 277 279 282 283 285 286 287 288 289 291 293 295 296 297 298 299 300 301 302 303 304 304 304 303 301
181 182 181 180 180 181 183 186 189 192 194 196 199 201 202 203 204 205 206 206 203 200 196 192 188 185 183 183 184 187 190 194 197 198 199 200 203 209 224 242 256 266 273 278 281 283 285 286 287 288 289 290 292 293 295 297 298 299 300 301 302 303 304 305 305 305 304 302 300
181 180 180 180 181 183 185 188 191 193 195 197 199 201 201 202 201 201 200 198 195 190 186 182 179 178 179 182 184 187 188 189 188 187 186 188 194 208 229 249 262 272 279 283 285 287 288 289 290 291 291 293 294 296 297 299 300 302 303 304 305 306 306 306 305 304 303 301 299
180 179 179 180 182 184 187 189 192 193 195 196 197 197 197 196 195 193 191 187 183 178 174 173 173 175 178 180 182 182 181 178 176 174 175 180 194 216 239 257 269 279 285 288 290 292 293 294 294 294 295 296 297 298 300 301 303 304 306 307 308 308 308 306 305 303 301 299 298
178 178 179 180 182 183 184 185 186 186 187 188 189 189 188 186 184 182 179 175 171 168 168 169 172 174 175 176 175 173 170 168 166 166 171 183 203 228 251 267 277 285 290 293 295 297 298 299 299 299 299 299 300 301 302 304 306 308 309 310 310 309 307 305 303 301 300 299 299
176 177 178 179 181 182 182 181 180 179 179 180 179 178 176 174 170 168 166 165 164 164 167 169 170 170 170 168 165 162 160 159 161 166 175 192 216 242 261 275 284 290 295 299 302 303 304 304 304 304 303 303 303 304 305 307 309 311 312 312 312 310 308 305 303 301 300 300 302
176 177 178 180 182 183 183 182 179 176 173 171 169 166 163 161 159 159 159 161 163 165 166 166 165 164 162 159 156 155 154 157 162 171 184 204 230 255 272 282 290 296 301 305 308 309 309 309 309 308 307 306 306 308 309 311 313 315 316 315 314 312 309 306 303 301 301 302 304
177 178 180 182 183 184 183 181 176 171 166 161 158 155 154 154 155 157 159 161 162 162 162 160 158 156 155 153 152 152 154 159 166 177 193 217 243 266 282 291 298 303 307 310 312 313 314 314 314 312 311 310 311 312 314 316 318 319 320 319 317 314 311 307 304 302 302 302 304
179 179 180 181 181 180 177 173 167 161 157 153 151 151 152 154 156 157 159 159 159 157 156 154 152 151 151 151 152 154 156 161 168 181 202 230 259 281 294 301 306 309 312 315 317 318 318 318 318 317 316 315 316 318 319 321 322 323 323 321 318 315 312 309 306 304 303 304 304